FW5795 Weather Reports


time (UTC)temp
C
wind
direction
speed
KPH
gust
KPH
rain 1hr
cm
rain 24hr
cm
rain mn
cm
humidity
%
barometer
mb
20220812000806 23 160 1.6 6.4 0.00 0.00 0.00 65 1012.1
20220812000549 23 104 1.6 6.4 0.00 0.00 0.00 64 1012.1
20220811235805 23 70 1.6 9.7 0.00 0.00 0.00 63 1012.1
20220811235305 24 209 1.6 6.4 0.00 0.00 0.00 62 1012.1
20220811234903 24 108 1.6 8.0 0.00 0.00 0.00 61 1012.0
20220811234846 24 128 1.6 8.0 0.00 0.00 0.00 62 1012.0
20220811234222 25 210 1.6 6.4 0.00 0.00 0.00 59 1011.8
20220811233913 24 176 3.2 6.4 0.00 0.00 0.00 61 1011.9
20220811233638 25 207 3.2 6.4 0.00 0.00 0.00 60 1012.0
20220811232534 25 322 1.6 8.0 0.00 0.00 0.00 58 1011.8
20220811231941 25 205 1.6 6.4 0.00 0.00 0.00 56 1011.6
20220811231915 25 202 3.2 8.0 0.00 0.00 0.00 57 1011.7
20220811231402 25 214 3.2 8.0 0.00 0.00 0.00 56 1011.5
20220811231343 25 198 3.2 8.0 0.00 0.00 0.00 56 1011.6
20220811225754 25 153 3.2 8.0 0.00 0.00 0.00 55 1011.4
20220811225248 25 138 3.2 8.0 0.00 0.00 0.00 55 1011.4
20220811224745 26 176 3.2 8.0 0.00 0.00 0.00 54 1011.4
20220811224025 26 130 1.6 8.0 0.00 0.00 0.00 50 1011.3
20220811223625 26 209 3.2 8.0 0.00 0.00 0.00 47 1011.2
20220811223327 26 149 3.2 6.4 0.00 0.00 0.00 48 1011.2
20220811222243 26 190 1.6 8.0 0.00 0.00 0.00 47 1011.3
20220811222050 26 213 3.2 8.0 0.00 0.00 0.00 48 1011.3
20220811221803 26 200 1.6 8.0 0.00 0.00 0.00 47 1011.3
20220811221026 26 209 3.2 6.4 0.00 0.00 0.00 49 1011.3
20220811220549 26 218 3.2 6.4 0.00 0.00 0.00 48 1011.3
20220811215742 26 191 3.2 6.4 0.00 0.00 0.00 48 1011.2
20220811215527 26 228 3.2 6.4 0.00 0.00 0.00 47 1011.3
20220811214744 26 242 1.6 6.4 0.00 0.00 0.00 46 1011.3
20220811214524 26 202 3.2 9.7 0.00 0.00 0.00 48 1011.3
20220811214226 26 207 3.2 8.0 0.00 0.00 0.00 47 1011.4
20220811213929 26 194 3.2 9.7 0.00 0.00 0.00 46 1011.3
20220811213855 26 180 4.8 9.7 0.00 0.00 0.00 47 1011.3
20220811212453 26 214 4.8 8.0 0.00 0.00 0.00 47 1011.5
20220811212427 27 119 3.2 9.7 0.00 0.00 0.00 45 1011.3
20220811212153 26 105 4.8 9.7 0.00 0.00 0.00 47 1011.4
20220811211843 27 186 3.2 11.3 0.00 0.00 0.00 45 1011.3
20220811211316 27 120 4.8 11.3 0.00 0.00 0.00 46 1011.4
20220811210743 26 80 6.4 16.1 0.00 0.00 0.00 47 1011.5
20220811210732 26 167 4.8 16.1 0.00 0.00 0.00 45 1011.4
20220811205833 27 238 4.8 9.7 0.00 0.00 0.00 46 1011.4
20220811204608 26 207 4.8 11.3 0.00 0.00 0.00 47 1011.6
20220811203525 26 176 3.2 9.7 0.00 0.00 0.00 47 1011.6
20220811202820 26 137 3.2 8.0 0.00 0.00 0.00 47 1011.8
20220811202808 26 144 1.6 8.0 0.00 0.00 0.00 46 1011.7
20220811202030 26 231 4.8 14.5 0.00 0.00 0.00 47 1011.8
20220811201632 26 186 4.8 11.3 0.00 0.00 0.00 48 1011.8
20220811201625 26 226 4.8 14.5 0.00 0.00 0.00 48 1011.8
20220811200805 26 226 3.2 11.3 0.00 0.00 0.00 47 1011.8
20220811200015 26 202 3.2 11.3 0.00 0.00 0.00 50 1011.7
20220811195516 26 185 3.2 6.4 0.00 0.00 0.00 49 1011.8
20220811194718 26 182 3.2 6.4 0.00 0.00 0.00 48 1011.9
20220811194541 26 188 3.2 6.4 0.00 0.00 0.00 49 1011.9
20220811194242 26 213 1.6 6.4 0.00 0.00 0.00 47 1011.9
20220811193213 26 141 3.2 6.4 0.00 0.00 0.00 47 1011.9
20220811193106 26 208 4.8 12.9 0.00 0.00 0.00 48 1012.2
20220811193059 26 189 4.8 9.7 0.00 0.00 0.00 47 1012.2
20220811193053 26 191 4.8 12.9 0.00 0.00 0.00 48 1012.0
20220811191215 26 170 4.8 9.7 0.00 0.00 0.00 48 1012.1
20220811190710 27 223 3.2 9.7 0.00 0.00 0.00 47 1012.1
20220811190454 27 239 3.2 8.0 0.00 0.00 0.00 48 1012.2
20220811190001 26 222 4.8 8.0 0.00 0.00 0.00 48 1012.2
20220811185209 26 248 3.2 8.0 0.00 0.00 0.00 49 1012.3
20220811184711 26 214 4.8 14.5 0.00 0.00 0.00 49 1012.3
20220811184207 26 194 4.8 14.5 0.00 0.00 0.00 49 1012.3
20220811183752 26 193 4.8 12.9 0.00 0.00 0.00 50 1012.4
20220811183741 26 230 4.8 9.7 0.00 0.00 0.00 49 1012.4
20220811182946 26 216 4.8 12.9 0.00 0.00 0.00 49 1012.5
20220811182459 26 201 3.2 12.9 0.00 0.00 0.00 50 1012.5
20220811181705 26 153 3.2 9.7 0.00 0.00 0.00 49 1012.5
20220811181157 27 181 3.2 11.3 0.00 0.00 0.00 47 1012.6
20220811180944 26 136 3.2 11.3 0.00 0.00 0.00 49 1012.5
20220811180156 27 207 1.6 11.3 0.00 0.00 0.00 51 1012.6
20220811175649 26 199 1.6 6.4 0.00 0.00 0.00 52 1012.6
20220811175149 26 220 1.6 6.4 0.00 0.00 0.00 54 1012.6
20220811174649 25 235 3.2 6.4 0.00 0.00 0.00 54 1012.8
20220811174410 25 222 1.6 6.4 0.00 0.00 0.00 54 1013.1
20220811174357 25 207 3.2 8.0 0.00 0.00 0.00 53 1013.3
20220811174349 25 118 3.2 9.7 0.00 0.00 0.00 53 1013.3
20220811174318 25 201 3.2 6.4 0.00 0.00 0.00 55 1012.9
20220811172601 26 199 1.6 6.4 0.00 0.00 0.00 53 1013.3
20220811172554 26 215 3.2 11.3 0.00 0.00 0.00 54 1013.3
20220811172244 25 201 4.8 11.3 0.00 0.00 0.00 54 1013.3
20220811170645 25 33 3.2 9.7 0.00 0.00 0.00 56 1013.3
20220811170253 25 202 3.2 9.7 0.00 0.00 0.00 56 1013.3
20220811170230 25 144 4.8 9.7 0.00 0.00 0.00 56 1013.4
20220811165435 25 175 3.2 9.7 0.00 0.00 0.00 57 1013.4
20220811164636 25 224 3.2 8.0 0.00 0.00 0.00 57 1013.3
20220811164134 25 209 3.2 8.0 0.00 0.00 0.00 58 1013.6
20220811163921 25 221 1.6 8.0 0.00 0.00 0.00 57 1013.5
20220811163139 25 193 1.6 4.8 0.00 0.00 0.00 57 1013.4
20220811162642 25 158 3.2 8.0 0.00 0.00 0.00 57 1013.4
20220811162416 24 198 3.2 12.9 0.00 0.00 0.00 59 1013.5
20220811161622 25 36 3.2 12.9 0.00 0.00 0.00 58 1013.7
20220811161118 25 170 1.6 11.3 0.00 0.00 0.00 59 1013.8
20220811160612 25 164 1.6 6.4 0.00 0.00 0.00 60 1013.7
20220811160114 24 187 3.2 6.4 0.00 0.00 0.00 61 1013.8
20220811155611 24 199 3.2 6.4 0.00 0.00 0.00 61 1013.8
20220811155207 24 185 3.2 6.4 0.00 0.00 0.00 61 1013.8
20220811155151 24 223 1.6 4.8 0.00 0.00 0.00 61 1013.8
20220811154242 24 215 3.2 6.4 0.00 0.00 0.00 59 1013.8
20220811154216 24 140 1.6 6.4 0.00 0.00 0.00 60 1013.8
20220811153937 24 217 1.6 6.4 0.00 0.00 0.00 58 1013.8
20220811152612 24 208 3.2 8.0 0.00 0.00 0.00 58 1013.9
20220811152111 24 183 3.2 8.0 0.00 0.00 0.00 59 1013.8
20220811152017 24 127 1.6 4.8 0.00 0.00 0.00 61 1013.8
20220811152012 23 128 1.6 4.8 0.00 0.00 0.00 61 1013.9
20220811152005 24 205 1.6 6.4 0.00 0.00 0.00 60 1013.8
20220811150254 23 214 0.0 3.2 0.00 0.00 0.00 63 1013.9
20220811150211 24 139 1.6 4.8 0.00 0.00 0.00 62 1013.7
20220811145639 24 201 0.0 3.2 0.00 0.00 0.00 63 1013.9
20220811144928 23 313 1.6 6.4 0.00 0.00 0.00 64 1014.1
20220811144922 23 213 0.0 3.2 0.00 0.00 0.00 63 1014.0
20220811143601 23 212 1.6 6.4 0.00 0.00 0.00 64 1014.2
20220811143411 23 211 0.0 6.4 0.00 0.00 0.00 63 1014.2
20220811142602 23 207 1.6 3.2 0.00 0.00 0.00 64 1014.2
20220811142058 23 207 1.6 4.8 0.00 0.00 0.00 64 1014.3
20220811141834 22 207 0.0 4.8 0.00 0.00 0.00 65 1014.2
20220811141056 22 193 0.0 4.8 0.00 0.00 0.00 66 1014.2
20220811140838 22 186 0.0 4.8 0.00 0.00 0.00 67 1014.1
20220811140056 22 169 0.0 3.2 0.00 0.00 0.00 67 1014.2
20220811135848 22 182 0.0 3.2 0.00 0.00 0.00 68 1014.2
20220811135053 22 182 0.0 3.2 0.00 0.00 0.00 68 1014.1
20220811134925 22 195 0.0 3.2 0.00 0.00 0.00 69 1014.2
20220811134920 22 182 0.0 3.2 0.00 0.00 0.00 69 1014.2
20220811133835 22 188 0.0 3.2 0.00 0.00 0.00 69 1014.2
20220811133416 22 192 0.0 3.2 0.00 0.00 0.00 69 1014.2
20220811132835 22 192 0.0 3.2 0.00 0.00 0.00 69 1014.2
20220811132345 22 192 1.6 4.8 0.00 0.00 0.00 69 1014.3
20220811131552 22 192 1.6 4.8 0.00 0.00 0.00 69 1014.4
20220811131051 22 203 1.6 3.2 0.00 0.00 0.00 68 1014.4
20220811130548 22 230 1.6 4.8 0.00 0.00 0.00 69 1014.3
20220811130241 21 200 1.6 6.4 0.00 0.00 0.00 71 1014.4
20220811130153 22 261 1.6 6.4 0.00 0.00 0.00 69 1014.3
20220811125903 21 200 0.0 4.8 0.00 0.00 0.00 71 1014.3
20220811125857 22 145 0.0 6.4 0.00 0.00 0.00 70 1014.2
20220811125853 21 201 0.0 3.2 0.00 0.00 0.00 70 1014.2
20220811124510 21 207 3.2 6.4 0.00 0.00 0.00 71 1014.5
20220811124505 21 201 1.6 4.8 0.00 0.00 0.00 71 1014.4
20220811122546 21 200 1.6 6.4 0.00 0.00 0.00 71 1014.4
20220811122041 21 203 0.0 4.8 0.00 0.00 0.00 72 1014.3
20220811121958 20 192 1.6 3.2 0.00 0.00 0.00 74 1014.3
20220811121653 21 192 0.0 3.2 0.00 0.00 0.00 73 1014.3
20220811120600 20 195 1.6 4.8 0.00 0.00 0.00 74 1014.3
20220811120417 20 189 1.6 4.8 0.00 0.00 0.00 74 1014.3
20220811115542 20 197 1.6 4.8 0.00 0.00 0.00 75 1014.4
20220811115119 20 202 3.2 6.4 0.00 0.00 0.00 76 1014.5
20220811115104 20 198 1.6 6.4 0.00 0.00 0.00 76 1014.5
20220811114041 20 237 1.6 6.4 0.00 0.00 0.00 76 1014.6
20220811113824 20 169 0.0 4.8 0.00 0.00 0.00 76 1014.5
20220811113037 20 169 0.0 0.0 0.00 0.00 0.00 77 1014.4
20220811112828 20 169 0.0 0.0 0.00 0.00 0.00 77 1014.5
20220811112035 20 169 0.0 0.0 0.00 0.00 0.00 77 1014.6
20220811111535 20 169 0.0 0.0 0.00 0.00 0.00 77 1014.7
20220811111035 19 169 0.0 0.0 0.00 0.00 0.00 77 1014.7
20220811110548 19 169 0.0 0.0 0.00 0.00 0.00 77 1014.7
20220811110358 19 169 0.0 0.0 0.00 0.00 0.00 77 1014.6
20220811105533 19 169 0.0 0.0 0.00 0.00 0.00 77 1014.7
20220811105329 19 169 0.0 0.0 0.00 0.00 0.00 78 1014.6
20220811104656 18 169 0.0 0.0 0.00 0.00 0.00 77 1014.6
20220811104640 19 169 0.0 0.0 0.00 0.00 0.00 78 1014.6
20220811104102 19 169 0.0 0.0 0.00 0.00 0.00 78 1014.6
20220811103030 18 169 0.0 0.0 0.00 0.00 0.00 77 1014.6
20220811102910 18 169 0.0 0.0 0.00 0.00 0.00 77 1014.5
20220811102621 18 169 0.0 0.0 0.00 0.00 0.00 76 1014.5
20220811102606 18 169 0.0 0.0 0.00 0.00 0.00 77 1014.5
20220811101317 18 169 0.0 0.0 0.00 0.00 0.00 76 1014.4
20220811100615 18 169 0.0 0.0 0.00 0.00 0.00 76 1014.5
20220811100559 18 169 0.0 0.0 0.00 0.00 0.00 76 1014.5
20220811095515 18 169 0.0 0.0 0.00 0.00 0.00 75 1014.5
20220811095017 19 169 0.0 0.0 0.00 0.00 0.00 75 1014.4
20220811094802 19 169 0.0 0.0 0.00 0.00 0.00 75 1014.4
20220811094301 19 169 0.0 0.0 0.00 0.00 0.00 75 1014.5
20220811093800 19 169 0.0 0.0 0.00 0.00 0.00 75 1014.4
20220811093242 19 169 0.0 0.0 0.00 0.00 0.00 74 1014.7
20220811093153 19 169 0.0 0.0 0.00 0.00 0.00 75 1014.5
20220811092921 19 169 0.0 0.0 0.00 0.00 0.00 73 1014.8
20220811092915 19 169 0.0 0.0 0.00 0.00 0.00 73 1014.9
20220811092614 19 169 0.0 0.0 0.00 0.00 0.00 75 1014.6
20220811092341 19 169 0.0 0.0 0.00 0.00 0.00 75 1014.7
20220811091513 19 169 0.0 0.0 0.00 0.00 0.00 74 1014.8
20220811090930 19 169 0.0 0.0 0.00 0.00 0.00 73 1014.8
20220811085523 19 169 0.0 0.0 0.00 0.00 0.00 73 1014.7
20220811084452 19 169 0.0 0.0 0.00 0.00 0.00 73 1014.9
20220811083951 19 169 0.0 0.0 0.00 0.00 0.00 73 1015.0
20220811083448 19 169 0.0 0.0 0.00 0.00 0.00 73 1014.9
20220811083005 19 169 0.0 0.0 0.00 0.00 0.00 73 1015.0
20220811082956 19 169 0.0 0.0 0.00 0.00 0.00 73 1015.0
20220811081943 19 169 0.0 0.0 0.00 0.00 0.00 72 1015.0
20220811081442 19 169 0.0 1.6 0.00 0.00 0.00 72 1015.1
20220811080938 20 169 0.0 1.6 0.00 0.00 0.00 72 1015.1
20220811080718 19 169 0.0 0.0 0.00 0.00 0.00 72 1015.1
20220811075943 19 169 0.0 0.0 0.00 0.00 0.00 73 1015.3
20220811075505 19 169 0.0 1.6 0.00 0.00 0.00 73 1015.4
20220811075455 19 169 0.0 0.0 0.00 0.00 0.00 73 1015.3
20220811074435 19 169 0.0 1.6 0.00 0.00 0.00 73 1015.5
20220811073934 19 169 0.0 1.6 0.00 0.00 0.00 73 1015.4
20220811073753 19 169 0.0 1.6 0.00 0.00 0.00 73 1015.5
20220811073507 19 169 0.0 1.6 0.00 0.00 0.00 73 1015.5
20220811072431 19 169 0.0 1.6 0.00 0.00 0.00 73 1015.7
20220811071926 19 169 0.0 0.0 0.00 0.00 0.00 73 1015.9
20220811071420 19 169 0.0 0.0 0.00 0.00 0.00 74 1015.9
20220811071204 19 169 0.0 0.0 0.00 0.00 0.00 74 1015.9
20220811070649 19 169 0.0 0.0 0.00 0.00 0.00 73 1015.9
20220811070039 19 169 0.0 0.0 0.00 0.00 0.00 73 1016.1
20220811070014 19 169 0.0 0.0 0.00 0.00 0.00 74 1016.0
20220811065739 19 169 0.0 0.0 0.00 0.00 0.00 73 1016.0
20220811065454 19 169 0.0 0.0 0.00 0.00 0.00 73 1016.0
20220811065442 19 169 0.0 0.0 0.00 0.00 0.00 73 1016.0
20220811065430 19 169 0.0 0.0 0.00 0.00 0.00 73 1016.1
20220811064314 19 169 0.0 0.0 0.00 0.00 0.00 73 1016.1
20220811062645 19 169 0.0 0.0 0.00 0.00 0.00 73 1016.1
20220811062228 19 169 0.0 0.0 0.00 0.00 0.00 73 1016.2
20220811062224 19 169 0.0 0.0 0.00 0.00 0.00 73 1016.3
20220811062218 19 169 0.0 0.0 0.00 0.00 0.00 73 1016.1
20220811061616 19 169 0.0 0.0 0.00 0.00 0.00 73 1016.2
20220811061355 19 169 0.0 0.0 0.00 0.00 0.00 73 1016.3
20220811055935 19 169 0.0 0.0 0.00 0.00 0.00 73 1016.1
20220811055049 19 169 0.0 1.6 0.00 0.00 0.00 73 1016.7
20220811055029 19 169 0.0 0.0 0.00 0.00 0.00 73 1016.5
20220811054501 19 169 0.0 1.6 0.00 0.00 0.00 73 1016.6
20220811054225 19 169 0.0 1.6 0.00 0.00 0.00 73 1016.7
20220811052902 19 169 0.0 1.6 0.00 0.00 0.00 73 1016.8
20220811052731 19 169 0.0 0.0 0.00 0.00 0.00 73 1016.9
20220811052727 19 169 0.0 1.6 0.00 0.00 0.00 73 1017.0
20220811051640 19 169 0.0 1.6 0.00 0.00 0.00 73 1016.9
20220811050902 19 169 0.0 1.6 0.00 0.00 0.00 73 1016.9
20220811050404 19 169 0.0 1.6 0.00 0.00 0.00 73 1017.0
20220811045904 19 169 0.0 1.6 0.00 0.00 0.00 73 1017.0
20220811045636 19 172 0.0 1.6 0.00 0.00 0.00 72 1017.2
20220811045607 19 172 0.0 1.6 0.00 0.00 0.00 72 1017.0
20220811045340 19 170 0.0 1.6 0.00 0.00 0.00 73 1017.1
20220811045336 19 170 0.0 3.2 0.00 0.00 0.00 72 1017.1
20220811045013 19 172 0.0 1.6 0.00 0.00 0.00 72 1017.1
20220811044458 19 172 0.0 0.0 0.00 0.00 0.00 72 1017.1
20220811044439 19 172 0.0 1.6 0.00 0.00 0.00 72 1017.1
20220811043336 19 172 0.0 1.6 0.00 0.00 0.00 72 1017.1
20220811042457 19 172 0.0 1.6 0.00 0.00 0.00 72 1017.1
20220811041146 19 140 0.0 3.2 0.00 0.00 0.00 72 1017.2
20220811040632 19 141 0.0 1.6 0.00 0.00 0.00 72 1017.3
20220811035852 19 141 0.0 0.0 0.00 0.00 0.00 72 1017.3
20220811035350 19 141 0.0 1.6 0.00 0.00 0.00 72 1017.3
20220811035146 19 141 0.0 3.2 0.00 0.00 0.00 72 1017.2
20220811034349 19 188 1.6 6.4 0.00 0.00 0.00 72 1017.2
20220811033845 19 188 1.6 6.4 0.00 0.00 0.00 72 1017.3
20220811033349 19 199 1.6 4.8 0.00 0.00 0.00 71 1017.2
20220811033215 19 135 0.0 3.2 0.00 0.00 0.00 71 1017.1
20220811032905 19 47 0.0 3.2 0.00 0.00 0.00 71 1017.1
20220811031840 19 136 0.0 3.2 0.00 0.00 0.00 71 1017.2
20220811031338 19 135 0.0 1.6 0.00 0.00 0.00 71 1017.3
20220811031209 19 126 0.0 3.2 0.00 0.00 0.00 70 1017.3
20220811030904 19 135 0.0 3.2 0.00 0.00 0.00 71 1017.3
20220811030139 19 139 0.0 3.2 0.00 0.00 0.00 70 1017.5
20220811025331 19 64 0.0 4.8 0.00 0.00 0.00 70 1017.4
20220811025109 19 172 0.0 4.8 0.00 0.00 0.00 69 1017.4
20220811024334 19 120 0.0 1.6 0.00 0.00 0.00 69 1017.4
20220811023830 19 120 0.0 3.2 0.00 0.00 0.00 69 1017.5
20220811023702 19 112 0.0 4.8 0.00 0.00 0.00 68 1017.5
20220811023658 19 112 0.0 4.8 0.00 0.00 0.00 69 1017.6
20220811022357 20 132 0.0 3.2 0.00 0.00 0.00 67 1017.5
20220811022338 20 145 0.0 3.2 0.00 0.00 0.00 68 1017.5
20220811021301 20 134 0.0 3.2 0.00 0.00 0.00 67 1017.5
20220811020820 20 127 0.0 1.6 0.00 0.00 0.00 66 1017.8
20220811020813 20 128 0.0 1.6 0.00 0.00 0.00 67 1017.6
20220811015805 20 127 0.0 1.6 0.00 0.00 0.00 65 1017.9
20220811015542 20 72 0.0 1.6 0.00 0.00 0.00 65 1017.8
20220811014803 20 74 0.0 3.2 0.00 0.00 0.00 65 1017.9
20220811014303 20 74 0.0 3.2 0.00 0.00 0.00 65 1017.8
20220811014050 20 180 0.0 3.2 0.00 0.00 0.00 65 1017.8
20220811013551 20 127 0.0 3.2 0.00 0.00 0.00 65 1017.9
20220811012802 20 336 1.6 6.4 0.00 0.00 0.00 65 1017.9
20220811012305 20 20 1.6 6.4 0.00 0.00 0.00 65 1017.9
20220811011805 20 108 1.6 8.0 0.00 0.00 0.00 65 1017.9
20220811011301 20 232 1.6 8.0 0.00 0.00 0.00 65 1017.9
20220811010842 20 210 0.0 4.8 0.00 0.00 0.00 64 1017.8
20220811010830 20 205 0.0 4.8 0.00 0.00 0.00 65 1017.8
20220811005804 20 161 0.0 4.8 0.00 0.00 0.00 65 1017.8
20220811005342 20 94 0.0 4.8 0.00 0.00 0.00 64 1017.6
20220811005331 20 197 1.6 4.8 0.00 0.00 0.00 64 1017.8
20220811004621 20 129 0.0 3.2 0.00 0.00 0.00 64 1017.5
20220811004617 20 130 0.0 3.2 0.00 0.00 0.00 64 1017.6
20220811003701 21 87 0.0 4.8 0.00 0.00 0.00 62 1017.3
20220811003356 21 114 0.0 3.2 0.00 0.00 0.00 63 1017.5
20220811002646 21 164 0.0 3.2 0.00 0.00 0.00 62 1017.2
20220811002641 21 49 0.0 4.8 0.00 0.00 0.00 62 1017.3
20220811001303 21 95 0.0 3.2 0.00 0.00 0.00 62 1017.1